Waarnemingen

Advertentie
Mijn weer
Junsele, Zweden (2244): temperatuur & dauwpunt: 10.01.2018 10:00:00 - 16.01.2018 10:00:00 (CET)Junsele, Zweden (2244): windsnelheid & windstoten: 10.01.2018 10:00:00 - 16.01.2018 10:00:00 (CET)Junsele, Zweden (2244): windrichting: 10.01.2018 10:00:00 - 16.01.2018 10:00:00 (CET)Junsele, Zweden (2244): luchtdruk: 10.01.2018 10:00:00 - 16.01.2018 10:00:00 (CET)Junsele, Zweden (2244): zicht: 10.01.2018 10:00:00 - 16.01.2018 10:00:00 (CET)Junsele, Zweden (2244): neerslag: 10.01.2018 10:00:00 - 16.01.2018 10:00:00 (CET)
Datum & Tijd tt [°C] td [°C] ff [km/u] ff [kn] fx [km/u] fx [kn] dd ppp [hPa] vv [km] rr [mm]
16.01.2018 10:00:00 - - - - - - - - - -
16.01.2018 09:00:00 -2,1 -2,9 25 13 63 34 ZO 993,0 1,8 0,2
16.01.2018 08:00:00 -1,9 -2,7 22 12 59 32 ZO 993,3 2,5 0,2
16.01.2018 07:00:00 -1,9 -2,6 26 14 55 30 ZO 993,3 1,2 0,3
16.01.2018 06:00:00 -2,0 -2,3 14 7 38 21 OZO 994,1 1,5 0,9
16.01.2018 05:00:00 -2,1 -2,7 20 11 45 24 ZO 994,7 0,9 0,9
16.01.2018 04:00:00 -2,3 -3,0 16 9 45 25 ZO 995,8 1,2 0,7
16.01.2018 03:00:00 -2,5 -3,6 19 11 55 30 ZO 996,8 1,4 0,7
16.01.2018 02:00:00 -2,6 -4,6 18 10 46 25 ZO 998,3 14 0,0
16.01.2018 01:00:00 -2,8 -5,1 22 12 50 27 ZO 999,6 7 0,0
16.01.2018 00:00:00 -2,7 -5,2 21 11 51 28 ZO 1000,3 9 0,0
15.01.2018 23:00:00 -2,8 -5,3 20 11 48 26 ZO 1001,1 15 0,0
15.01.2018 22:00:00 -3,3 -5,3 12 7 31 17 ZO 1002,4 15 0,0
15.01.2018 21:00:00 -3,8 -5,6 14 8 35 19 ZO 1003,4 14 0,0
15.01.2018 20:00:00 -4,2 -6,0 12 7 40 22 ZO 1004,7 13 0,0
15.01.2018 19:00:00 -4,4 -6,5 10 6 41 22 ZZO 1005,8 17 0,0
15.01.2018 18:00:00 -4,6 -7,0 13 7 48 26 ZZO 1006,7 19 0,0
15.01.2018 17:00:00 -4,4 -7,3 14 8 42 23 ZZO 1007,8 21 0,0
15.01.2018 16:00:00 -4,3 -6,8 13 7 37 20 ZZO 1008,8 19 0,0
15.01.2018 15:00:00 -4,2 -6,8 10 6 37 20 Z 1009,3 22 0,0
15.01.2018 14:00:00 -4,4 -7,0 13 7 34 19 Z 1010,3 18 0,0
15.01.2018 13:00:00 -4,5 -7,3 15 8 39 21 ZZO 1011,5 18 0,0
15.01.2018 12:00:00 -4,9 -7,5 14 8 - - ZZO 1012,6 15 0,0
15.01.2018 11:00:00 -5,2 -7,8 12 7 35 19 ZZO 1013,5 7 0,0
15.01.2018 10:00:00 -5,5 -8,1 13 7 31 17 Z 1014,6 15 0,0
15.01.2018 09:00:00 -5,7 -8,4 11 6 34 18 ZZO 1015,1 28 0,0
15.01.2018 08:00:00 -5,6 -8,3 12 7 36 19 Z 1015,4 23 0,0
15.01.2018 07:00:00 -5,4 -8,3 15 8 37 20 ZZO 1015,5 24 0,0
15.01.2018 06:00:00 -5,2 -7,8 15 8 38 20 ZZO 1016,4 27 0,0
15.01.2018 05:00:00 -5,1 -7,5 10 5 37 20 ZZO 1017,3 30 0,0
15.01.2018 04:00:00 -5,0 -7,6 13 7 34 19 Z 1018,2 30 0,0
15.01.2018 03:00:00 -5,2 -7,6 8 5 31 17 Z 1019,4 23 0,0
15.01.2018 02:00:00 -5,2 -8,3 12 6 30 16 Z 1020,6 20 0,0
15.01.2018 01:00:00 -5,6 -8,2 9 5 32 17 ZZO 1021,3 16 0,0
15.01.2018 00:00:00 -5,7 -8,0 12 6 40 21 Z 1022,1 18 0,0
14.01.2018 23:00:00 -5,8 -7,8 11 6 33 18 Z 1022,4 23 0,0
14.01.2018 22:00:00 -5,7 -7,8 12 7 39 21 ZZO 1022,6 23 0,0
14.01.2018 21:00:00 -5,7 -7,8 13 7 35 19 ZZO 1023,3 32 0,0
14.01.2018 20:00:00 -5,9 -7,9 11 6 32 17 ZZO 1023,5 32 0,0
14.01.2018 19:00:00 -5,9 -7,7 10 5 29 16 ZZO 1024,2 25 0,0
14.01.2018 18:00:00 -6,0 -7,8 14 8 37 20 Z 1025,6 20 0,0
14.01.2018 17:00:00 -6,1 -7,6 14 8 32 17 Z 1026,4 22 0,0
14.01.2018 16:00:00 -6,2 -7,3 8 5 31 17 Z 1027,0 29 0,0
14.01.2018 15:00:00 -6,2 -7,4 10 5 26 14 Z 1027,6 28 0,0
14.01.2018 14:00:00 -6,3 -7,4 8 4 23 12 Z 1028,4 22 0,0
14.01.2018 13:00:00 -6,4 -7,5 8 5 23 13 Z 1029,1 22 0,0
14.01.2018 12:00:00 -6,5 -7,4 8 5 29 16 Z 1029,9 19 0,0
14.01.2018 11:00:00 -6,6 -7,4 8 4 29 16 Z 1030,6 21 0,0
14.01.2018 10:00:00 -6,9 -7,7 9 5 23 12 ZZO 1030,7 22 0,0
14.01.2018 09:00:00 -7,3 -8,0 9 5 21 12 Z 1031,2 31 0,0
14.01.2018 08:00:00 -7,7 -8,5 7 4 23 12 Z 1031,5 32 0,0
14.01.2018 07:00:00 -8,0 -8,7 5 3 19 11 Z 1031,9 31 0,0
14.01.2018 06:00:00 -8,6 -9,4 7 4 21 12 ZZO 1032,4 36 0,0
14.01.2018 05:00:00 -9,7 -10,6 6 3 16 9 ZZO 1033,0 37 0,0
14.01.2018 04:00:00 - - - - - - - - - -
14.01.2018 03:00:00 -16,7 -18,2 4 2 10 5 OZO 1034,8 11 0,0
14.01.2018 02:00:00 -21,8 -23,9 3 2 5 3 OZO 1035,5 25 0,0
14.01.2018 01:00:00 -24,6 -26,9 1 1 4 2 NO 1036,1 11 0,0
14.01.2018 00:00:00 -27,7 -30,3 1 1 6 3 ZZW - 4,3 0,0
13.01.2018 23:00:00 -27,5 -30,2 3 1 6 3 ONO 1036,9 33 0,0
13.01.2018 22:00:00 -27,2 -29,9 1 1 5 3 OZO 1037,2 35 0,0
13.01.2018 21:00:00 -26,8 -29,5 3 2 4 2 OZO 1037,4 38 0,0
13.01.2018 20:00:00 -26,5 -29,0 1 1 3 2 OZO 1037,8 14 0,0
13.01.2018 19:00:00 -26,0 -28,6 1 0 6 3 ZO 1037,8 26 0,0
13.01.2018 18:00:00 -25,9 -28,5 3 1 5 3 OZO 1037,9 20 0,0
13.01.2018 17:00:00 -25,4 -28,0 1 0 2 1 N 1038,0 29 0,0
13.01.2018 16:00:00 -25,2 -27,6 1 1 3 2 WNW 1038,1 28 0,0
13.01.2018 15:00:00 -24,4 -26,9 1 1 3 2 Z 1038,3 34 0,1
13.01.2018 14:00:00 -23,9 -26,2 1 0 6 3 N 1038,6 17 0,0
13.01.2018 13:00:00 -23,6 -25,9 2 1 7 4 O 1039,0 37 0,0
13.01.2018 12:00:00 -24,8 -27,2 2 1 5 3 O 1039,2 33 0,0
13.01.2018 11:00:00 -26,0 -28,6 2 1 5 3 OZO 1039,3 36 0,0
13.01.2018 10:00:00 -27,1 -29,8 1 1 2 1 OZO 1039,7 29 0,0
13.01.2018 09:00:00 -27,6 -30,3 1 0 4 2 ONO 1039,7 33 0,0
13.01.2018 08:00:00 -27,5 -30,2 1 1 4 2 N 1039,6 36 0,0
13.01.2018 07:00:00 -27,6 -30,3 2 1 4 2 O 1039,8 39 0,0
13.01.2018 06:00:00 -27,1 -29,8 1 1 4 2 NW 1039,7 37 0,0
13.01.2018 05:00:00 -26,9 -29,4 0 0 4 2 N 1039,8 34 0,0
13.01.2018 04:00:00 -26,7 -29,2 1 1 3 2 ZW 1040,1 34 0,0
13.01.2018 03:00:00 -26,2 -28,8 2 1 3 2 ONO 1040,2 28 0,0
13.01.2018 02:00:00 -26,4 -28,9 1 1 3 2 ZW 1040,2 27 0,0
13.01.2018 01:00:00 -25,9 -28,5 1 1 6 3 OZO 1040,3 26 0,0
13.01.2018 00:00:00 -25,4 -27,8 3 2 7 4 NW 1040,7 24 0,0
12.01.2018 23:00:00 -25,6 -28,2 1 1 7 4 ZZO 1040,3 25 0,0
12.01.2018 22:00:00 -25,7 -28,3 2 1 5 3 O - 24 0,0
12.01.2018 21:00:00 -25,3 -27,7 1 1 3 2 N - 23 0,0
12.01.2018 20:00:00 -25,3 -27,9 1 0 3 2 NNW - 22 0,0
12.01.2018 19:00:00 -25,2 -27,6 4 2 5 3 OZO - 28 0,0
12.01.2018 18:00:00 -24,8 -27,2 2 1 3 2 ZZW - 27 0,0
12.01.2018 17:00:00 -24,5 -27,0 1 0 4 2 NO - 23 0,0
12.01.2018 16:00:00 -24,2 -26,7 1 1 4 2 ONO - 24 0,0
12.01.2018 15:00:00 -23,8 -26,1 1 1 3 1 ZZO - 23 0,0
12.01.2018 14:00:00 -23,7 -26,0 1 1 4 2 Z - 27 0,0
12.01.2018 13:00:00 -23,9 -26,2 2 1 3 2 Z - 24 0,0
12.01.2018 12:00:00 -24,0 -26,3 1 1 4 2 NW 1039,2 28 0,0
12.01.2018 11:00:00 -24,8 -27,2 2 1 5 3 O 1038,7 27 0,0
12.01.2018 10:00:00 -25,8 -28,4 1 0 4 2 ZZO 1038,8 28 0,0
12.01.2018 09:00:00 -26,0 -28,6 1 1 3 2 ONO 1038,6 22 0,0
12.01.2018 08:00:00 -26,8 -29,5 1 1 4 2 N 1038,1 27 0,0
12.01.2018 07:00:00 -27,4 -30,1 2 1 4 2 OZO 1037,5 23 0,0
12.01.2018 06:00:00 -27,9 -30,5 2 1 8 4 ONO 1037,4 32 0,0
12.01.2018 05:00:00 -27,9 -30,5 1 0 4 2 Z 1037,5 18 0,0
12.01.2018 04:00:00 -27,8 -30,4 1 1 3 1 ZZW 1036,8 26 0,0
12.01.2018 03:00:00 -27,8 -30,4 2 1 3 2 OZO 1036,5 23 0,0
12.01.2018 02:00:00 -27,9 -30,5 1 1 5 3 O 1035,9 24 0,0
12.01.2018 01:00:00 -27,7 -30,3 3 1 5 3 NW 1035,6 27 0,0
12.01.2018 00:00:00 -28,2 -31,0 2 1 4 2 OZO 1035,3 24 0,0
11.01.2018 23:00:00 -28,1 -30,9 1 1 3 1 ZZO - 24 0,0
11.01.2018 22:00:00 -28,1 -30,7 1 0 5 3 ZZW - 20 0,0
11.01.2018 21:00:00 -27,8 -30,4 1 1 4 2 O - 18 0,0
11.01.2018 20:00:00 -27,7 -30,3 2 1 3 1 OZO - 16 0,0
11.01.2018 19:00:00 -26,9 -29,4 1 0 4 2 NW - 12 0,0
11.01.2018 18:00:00 -27,3 -30,0 2 1 3 1 ZZO - 16 0,0
11.01.2018 17:00:00 -26,5 -29,0 1 0 3 2 Z 1033,0 16 0,0
11.01.2018 16:00:00 -25,8 -28,4 1 1 4 2 WNW 1032,5 15 0,0
11.01.2018 15:00:00 -25,2 -27,6 1 0 2 1 WNW 1032,1 8 0,0
11.01.2018 14:00:00 -24,2 -26,5 1 0 2 1 OZO 1031,6 11 0,0
11.01.2018 13:00:00 -23,9 -26,2 1 0 5 3 WZW 1031,3 18 0,0
11.01.2018 12:00:00 -24,4 -26,9 2 1 3 2 OZO 1031,0 15 0,0
11.01.2018 11:00:00 -25,1 -27,4 0 0 3 1 NW 1030,8 10 0,0
11.01.2018 10:00:00 -26,1 -28,7 1 0 5 3 W 1030,7 16 0,0
11.01.2018 09:00:00 -26,3 -28,8 1 0 3 1 O 1030,3 11 0,0
11.01.2018 08:00:00 -26,2 -28,8 1 0 3 2 WZW 1029,6 13 0,0
11.01.2018 07:00:00 -26,2 -28,8 1 1 2 1 OZO 1029,3 12 0,0
11.01.2018 06:00:00 -25,5 -27,9 2 1 5 3 W - 11 0,0
11.01.2018 05:00:00 -25,7 -28,1 1 1 3 1 WNW - 12 0,0
11.01.2018 04:00:00 -25,3 -27,7 1 1 3 2 OZO - 10 0,0
11.01.2018 03:00:00 -24,9 -27,3 1 1 5 3 WZW - 10 0,0
11.01.2018 02:00:00 -24,1 -26,4 1 1 5 3 WNW 1028,3 9 0,0
11.01.2018 01:00:00 - - - - - - - - - -
11.01.2018 00:00:00 -22,8 -25,0 1 1 4 2 W 1028,2 11 0,0
10.01.2018 23:00:00 -22,5 -24,7 0 0 3 1 O 1028,0 11 0,0
10.01.2018 22:00:00 -21,6 -23,7 2 1 3 2 NO 1027,5 11 0,0
10.01.2018 21:00:00 -20,7 -22,7 2 1 3 2 OZO 1027,4 10 0,0
10.01.2018 20:00:00 -20,0 -22,0 1 1 3 2 N 1027,1 9 0,0
10.01.2018 19:00:00 -19,5 -21,4 3 1 4 2 OZO 1026,9 - 0,0
10.01.2018 18:00:00 -18,8 -20,6 3 1 4 2 OZO 1026,9 - 0,0
10.01.2018 17:00:00 -18,4 -20,2 1 0 1 1 ZZO 1026,5 - 0,0
10.01.2018 16:00:00 -17,9 -19,7 2 1 3 2 W 1026,4 11 0,0
10.01.2018 15:00:00 -17,0 -18,6 2 1 4 2 NNO 1026,4 13 0,0
10.01.2018 14:00:00 -15,8 -17,3 1 0 5 3 NW 1026,4 2,7 0,0
10.01.2018 13:00:00 -14,9 -16,3 2 1 5 3 NW 1026,6 5 0,0
10.01.2018 12:00:00 -15,0 -16,5 1 1 3 2 O 1026,6 1,7 0,0
10.01.2018 11:00:00 -14,9 -16,3 2 1 4 2 ZZW 1026,9 4,3 0,0
10.01.2018 10:00:00 -15,3 -16,7 1 1 3 2 N 1026,9 6 0,0

tt = temperatuur
td = dauwpunt
ff = windsnelheid
fx = windstoten
dd = windrichting
ppp = luchtdruk
vv = zicht
rr = neerslag

Weerstations in de omgeving